TimeAKST,TemperatureF,Dew PointF,Humidity,Sea Level PressureIn,VisibilityMPH,Wind Direction,Wind SpeedMPH,Gust SpeedMPH,PrecipitationIn,Events,Conditions,WindDirDegrees,DateUTC
12:53 AM,19.9,7.0,57,30.12,10.0,NE,13.8,-,N/A,,Clear,40,2012-11-13 09:53:00
1:53 AM,21.0,7.0,55,30.11,10.0,ENE,4.6,-,N/A,,Clear,60,2012-11-13 10:53:00
3:53 AM,23.0,10.0,58,30.05,10.0,ENE,6.9,-,N/A,,Clear,60,2012-11-13 12:53:00
4:53 AM,24.1,10.9,57,30.02,10.0,East,8.1,-,N/A,,Clear,80,2012-11-13 13:53:00
5:53 AM,27.0,8.1,45,29.99,10.0,ENE,18.4,25.3,N/A,,Clear,70,2012-11-13 14:53:00
6:53 AM,26.1,6.1,43,29.97,10.0,ENE,13.8,21.9,N/A,,Clear,60,2012-11-13 15:53:00
7:53 AM,27.0,5.0,39,29.96,10.0,ENE,16.1,24.2,N/A,,Mostly Cloudy,60,2012-11-13 16:53:00
8:53 AM,27.0,6.1,41,29.92,10.0,ENE,16.1,24.2,N/A,,Mostly Cloudy,70,2012-11-13 17:53:00
9:53 AM,26.1,10.9,53,29.89,10.0,NE,12.7,-,N/A,,Mostly Cloudy,50,2012-11-13 18:53:00
10:53 AM,26.1,10.0,51,29.87,10.0,NE,20.7,28.8,N/A,,Mostly Cloudy,40,2012-11-13 19:53:00
11:53 AM,28.0,8.1,43,29.84,10.0,NE,19.6,29.9,N/A,,Mostly Cloudy,50,2012-11-13 20:53:00
12:53 PM,28.0,9.0,45,29.82,10.0,ENE,17.3,24.2,N/A,,Mostly Cloudy,60,2012-11-13 21:53:00
1:53 PM,28.9,8.1,41,29.78,10.0,NE,24.2,29.9,N/A,,Mostly Cloudy,50,2012-11-13 22:53:00
2:53 PM,28.0,9.0,45,29.72,9.0,NE,25.3,35.7,N/A,,Mostly Cloudy,50,2012-11-13 23:53:00
3:53 PM,27.0,8.1,45,29.68,10.0,NE,25.3,40.3,N/A,,Mostly Cloudy,50,2012-11-14 00:53:00
4:53 PM,26.1,8.1,47,29.66,10.0,NE,29.9,40.3,N/A,,Mostly Cloudy,40,2012-11-14 01:53:00
5:53 PM,26.1,7.0,44,29.65,10.0,NE,25.3,35.7,N/A,,Overcast,50,2012-11-14 02:53:00
6:53 PM,27.0,6.1,41,29.63,9.0,NE,25.3,36.8,N/A,,Clear,50,2012-11-14 03:53:00
7:53 PM,27.0,6.1,41,29.61,10.0,NE,24.2,33.4,N/A,,Overcast,50,2012-11-14 04:53:00
8:53 PM,28.0,3.9,36,29.59,10.0,NE,27.6,39.1,N/A,,Overcast,50,2012-11-14 05:53:00
9:53 PM,28.0,3.9,36,29.58,10.0,NE,24.2,39.1,N/A,,Overcast,50,2012-11-14 06:53:00
10:53 PM,28.0,3.9,36,29.57,10.0,NE,28.8,38.0,N/A,,Overcast,50,2012-11-14 07:53:00
11:53 PM,28.9,3.9,35,29.57,10.0,NE,24.2,35.7,N/A,,Overcast,50,2012-11-14 08:53:00